Theta_e
271 275 278 277 273 275 272 275 268 269 269 277 278 277 276 277 280 284 282 285 283 276 278 279 276 278 280 281 281 283 285 284 286 287 287 288 288 288 289 289 290 291 292 292
267 270 273 272 275 274 274 270 273 275 276 284 283 282 278 279 279 280 280 280 279 278 278 280 275 277 281 278 281 282 281 285 286 286 286 286 286 287 287 287 288 289 289 289
270 267 267 273 272 274 275 276 278 272 278 281 282 285 283 285 284 282 283 283 282 281 280 278 278 281 279 280 281 281 282 284 285 285 285 285 285 285 285 285 286 286 287 288
267 268 270 280 277 278 277 276 280 280 280 282 283 284 286 287 286 286 285 284 283 283 282 280 279 277 281 281 281 281 283 284 284 284 283 283 284 283 284 284 284 285 285 286
269 262 276 277 278 277 277 278 281 280 282 281 282 284 284 287 288 288 287 286 284 284 282 280 279 280 280 280 280 281 282 282 281 281 280 281 281 282 281 282 283 283 284 284
262 267 270 281 280 282 280 276 281 282 281 280 282 280 281 285 286 287 288 286 285 284 282 280 279 280 280 280 279 279 280 281 281 281 280 279 280 280 280 281 282 282 282 281
263 265 273 279 282 282 276 281 282 282 282 282 283 284 285 285 284 285 286 287 284 281 281 280 279 280 280 279 278 279 278 279 279 280 280 280 279 279 279 279 278 277 278 278
265 264 272 282 282 280 283 285 285 283 284 284 285 286 286 286 286 285 285 284 283 281 280 279 279 279 279 278 278 275 275 275 274 275 279 279 276 275 275 275 274 274 276 276
276 277 283 285 283 285 285 285 286 286 286 286 286 286 286 286 285 285 285 285 283 281 279 275 275 277 277 276 275 272 271 270 275 273 275 276 275 274 273 272 273 272 275 277
277 283 282 283 286 284 286 286 286 287 286 286 286 286 286 286 285 284 283 282 279 278 277 278 275 276 278 274 273 273 271 270 271 276 275 272 276 277 274 272 272 273 272 274
278 282 281 283 284 287 287 286 286 286 287 287 286 287 286 286 286 285 283 278 279 281 282 281 277 277 275 273 273 273 272 271 272 273 274 273 274 276 276 274 276 272 271 272
282 286 288 288 285 285 285 285 286 285 284 284 285 285 285 285 285 283 282 276 279 281 282 283 279 279 275 274 274 274 273 272 273 274 272 273 273 271 281 281 282 283 282 276
288 285 284 283 280 281 285 285 284 284 284 284 281 283 280 283 282 282 278 278 280 283 283 283 281 280 276 275 274 274 276 275 274 274 273 272 272 272 274 275 284 285 285 284
284 284 284 281 287 282 280 279 278 277 277 280 281 276 279 280 277 277 279 282 283 282 282 283 282 281 279 276 275 276 276 274 275 275 275 274 274 273 270 272 275 276 281 283
283 285 286 281 279 277 276 275 278 280 279 278 275 278 274 279 281 283 280 277 280 280 281 281 283 284 282 278 277 277 277 276 276 276 276 275 275 273 273 271 270 268 262 273
286 285 282 282 286 283 278 273 280 283 281 281 278 278 281 280 281 282 274 276 278 282 283 283 284 286 282 279 278 278 278 278 277 277 275 274 274 273 273 272 272 271 269 272
287 288 283 276 281 285 282 287 282 285 279 279 282 283 276 275 275 276 275 277 280 282 283 281 285 284 281 278 278 279 280 279 278 278 277 276 276 275 275 274 275 274 274 274
292 294 294 293 292 289 287 285 283 283 281 284 280 275 273 272 279 281 276 276 271 276 279 282 283 282 281 280 279 280 280 279 279 278 279 278 277 277 277 276 276 276 276 276
290 291 292 290 286 283 283 281 281 282 282 277 273 278 278 278 275 276 271 269 271 275 281 280 282 282 283 281 280 280 280 280 279 279 280 279 278 278 278 277 277 277 277 275
288 287 286 283 277 281 282 279 275 275 274 270 269 267 272 271 269 267 266 273 274 277 273 275 277 280 282 281 280 280 280 280 279 279 279 280 280 279 279 279 279 279 278 277
282 282 283 280 278 275 274 266 269 269 266 262 268 270 270 264 262 262 265 269 271 269 270 271 273 277 275 277 279 279 279 280 279 280 280 280 281 281 280 280 279 279 279 278
268 268 272 269 267 267 260 259 261 260 262 260 259 259 259 263 261 261 264 270 269 267 267 267 267 269 270 275 276 279 279 279 279 280 280 281 281 281 280 280 280 280 280 280
267 266 265 264 262 261 257 257 258 258 259 259 261 262 263 262 262 264 266 265 261 263 264 264 266 270 273 271 272 274 273 276 278 279 280 280 280 281 281 281 281 281 281 280
266 266 265 263 260 262 264 262 259 257 257 259 260 260 260 263 262 262 266 268 265 264 262 263 267 272 269 272 277 277 277 275 275 278 277 278 281 281 281 281 281 282 281 281
264 265 265 265 264 262 260 260 260 259 260 260 258 259 260 260 263 263 260 260 263 262 261 264 269 269 265 267 275 276 276 276 277 277 277 279 279 280 281 281 281 282 281 279
263 263 263 263 262 261 261 260 260 258 259 263 261 260 261 261 261 259 259 260 259 261 260 261 261 262 266 270 272 272 272 272 272 273 275 275 277 278 279 280 280 280 279 279
262 262 262 263 264 263 263 263 262 262 261 258 259 262 261 260 259 259 260 260 260 260 259 260 261 262 262 263 264 264 265 267 267 266 265 267 271 273 273 273 275 274 273 273
Wind_Speed
4 2 3 4 5 9 10 6 7 5 7 12 10 8 7 4 3 6 6 7 8 5 5 5 5 4 4 4 4 4 4 5 6 5 5 5 6 6 7 7 7 7 7 8
5 3 1 7 11 11 8 5 12 10 23 14 7 3 4 6 4 7 6 8 8 7 6 7 6 5 4 2 4 4 4 4 4 5 5 5 5 5 6 7 7 8 8 9
6 2 6 8 9 14 6 5 11 8 14 4 4 6 5 6 7 8 9 8 7 8 7 6 5 5 3 2 2 2 3 4 5 5 5 5 6 7 7 7 7 8 7 8
4 5 4 6 5 6 8 6 17 11 10 7 6 4 7 8 7 9 8 8 8 6 5 6 4 3 3 2 1 1 2 4 4 5 5 5 5 6 6 5 6 5 7 8
2 4 9 1 6 10 9 10 21 23 17 6 5 6 9 6 11 11 8 7 7 7 5 5 6 5 5 4 3 3 2 3 3 3 4 4 4 4 3 4 5 6 5 5
3 3 7 5 3 5 4 7 8 16 10 6 3 0 6 2 3 5 8 4 7 7 6 7 6 5 5 5 4 5 5 5 4 4 4 5 4 3 2 4 3 3 5 5
2 3 12 8 7 6 6 9 5 9 7 9 7 7 2 2 2 1 4 10 7 6 8 8 8 6 6 4 6 5 2 2 3 4 4 4 2 2 3 4 4 4 6 5
4 2 12 8 6 10 6 2 5 6 7 9 8 6 5 6 4 4 5 5 10 9 7 7 8 9 7 7 4 3 3 2 0 1 2 3 4 2 3 3 4 4 5 4
13 12 1 15 3 8 3 4 5 5 5 8 7 7 9 8 8 8 7 7 5 7 10 7 6 7 8 7 7 6 4 3 3 1 1 3 4 4 2 2 3 2 3 3
3 8 16 10 12 6 6 7 4 4 5 7 7 6 8 7 7 7 6 7 5 7 7 9 10 11 10 7 8 8 7 6 5 6 4 2 2 3 3 3 2 3 3 3
7 9 3 11 13 13 13 8 7 6 7 9 6 9 8 8 9 8 7 5 6 9 10 12 9 11 10 8 8 7 6 6 6 5 6 4 4 5 5 3 5 5 4 4
11 8 7 4 9 9 11 11 15 9 6 9 9 11 7 9 9 5 7 4 6 10 10 10 8 9 6 7 10 10 7 6 6 6 5 5 4 3 9 10 14 13 11 9
6 6 5 2 2 4 8 9 9 10 10 8 6 7 3 7 7 6 4 6 9 14 12 8 9 10 8 12 12 11 11 9 6 6 6 6 5 5 6 5 11 13 13 15
6 5 2 4 5 6 6 4 3 3 4 7 6 4 6 7 5 7 8 11 9 8 8 9 8 10 10 13 14 13 11 10 10 9 8 8 8 8 5 6 7 6 11 11
9 10 5 3 1 3 3 5 4 7 5 7 6 6 4 9 11 13 6 6 7 7 8 7 11 14 12 14 16 16 13 10 10 8 8 8 7 7 7 7 6 4 1 6
13 11 6 10 15 8 8 6 9 11 8 8 7 7 12 11 11 10 4 6 6 10 12 11 13 10 8 12 13 11 11 12 12 10 8 8 7 7 7 8 8 7 7 8
8 11 7 6 13 14 13 12 12 12 6 8 10 8 4 5 6 8 7 7 9 10 7 6 10 6 9 11 13 10 9 10 14 9 10 11 10 11 9 8 9 9 10 8
16 18 17 14 13 12 9 10 9 10 9 10 6 4 5 6 10 10 7 6 4 6 9 10 8 8 11 12 12 9 8 9 9 11 9 9 11 9 9 10 10 10 9 9
20 21 20 12 9 6 5 6 8 10 8 6 5 10 9 8 6 7 3 4 5 7 10 6 9 9 9 11 11 8 8 9 9 9 10 11 9 9 10 10 11 10 9 7
10 6 4 3 5 7 7 7 5 7 6 3 2 3 6 5 5 4 4 8 5 6 4 5 5 6 7 8 13 7 9 10 10 9 9 10 10 10 10 12 10 10 9 9
11 5 6 5 4 3 5 2 3 3 2 4 6 6 6 4 3 1 1 4 3 5 6 6 4 4 2 4 7 7 8 8 9 9 9 9 9 10 10 11 11 11 10 10
11 10 9 7 3 3 2 1 1 3 4 4 3 3 4 6 3 3 5 7 2 5 3 3 3 5 3 5 3 5 6 7 7 7 7 8 8 9 9 9 9 9 9 9
10 8 7 7 6 5 2 1 2 2 1 1 3 6 6 3 3 3 2 1 2 5 3 4 6 6 4 2 3 3 3 5 6 6 6 6 7 8 8 8 8 8 8 8
8 8 6 5 4 4 6 6 5 3 1 2 4 5 4 2 1 3 2 2 3 3 3 3 4 4 4 0 2 3 4 3 3 3 3 5 5 6 6 7 7 7 7 7
6 6 6 7 6 5 6 7 5 4 4 2 3 2 3 2 1 2 1 2 2 1 1 4 4 4 2 2 1 1 1 1 2 2 3 4 4 5 6 6 6 6 6 6
7 5 4 4 3 4 4 3 2 2 2 3 2 2 3 3 3 2 1 1 2 3 2 2 2 4 3 2 2 3 3 2 2 1 2 1 2 3 4 4 5 5 6 6
4 6 5 5 5 5 5 4 3 3 3 1 2 3 3 4 3 2 3 2 2 4 3 3 4 4 2 3 4 4 4 4 5 4 3 3 3 3 3 3 3 2 0 1
Wind_Direction
262 282 289 240 188 170 184 207 178 262 230 272 277 267 255 244 286 287 278 251 242 241 245 264 283 296 314 327 338 345 0 3 4 6 12 5 21 22 29 33 36 39 47 50
293 352 270 261 224 196 192 221 274 277 283 257 273 238 248 253 236 260 252 251 255 239 228 240 232 257 284 313 336 1 16 10 2 13 15 15 22 25 39 40 40 52 52 57
272 325 308 299 218 190 167 190 197 192 226 246 268 249 255 245 215 235 242 235 228 234 227 224 211 196 238 283 314 11 15 11 14 17 23 17 18 30 27 34 44 49 55 71
257 353 342 234 148 198 185 218 216 265 248 225 239 261 265 240 223 225 226 227 223 215 217 218 194 176 161 188 202 103 87 57 33 31 28 19 35 40 31 25 37 45 44 55
145 212 294 202 189 162 163 271 205 222 249 249 283 319 290 243 222 222 206 213 210 188 178 176 184 184 178 177 191 173 125 100 85 91 82 60 55 55 39 43 45 52 48 54
85 162 219 242 167 181 161 295 180 187 224 199 168 247 257 225 247 210 170 169 183 176 153 158 188 172 186 192 196 212 185 158 142 125 121 104 84 61 57 62 62 59 69 42
164 245 285 235 150 163 90 238 161 176 176 154 191 220 243 328 308 320 204 159 149 178 179 178 157 164 205 221 218 209 194 161 143 136 124 105 75 61 80 80 75 58 66 37
92 107 274 145 82 175 210 110 155 183 192 186 214 266 253 259 251 193 202 183 161 167 204 187 167 162 190 216 218 158 148 151 135 137 133 118 120 66 70 87 78 63 72 40
191 210 233 198 186 211 176 167 184 176 202 206 212 237 251 246 233 224 210 203 197 195 175 186 191 185 186 210 166 158 151 172 184 257 210 152 146 144 120 118 124 126 125 134
94 237 229 220 240 250 207 218 175 187 176 182 216 234 257 258 248 235 220 214 185 167 208 216 188 195 207 172 164 161 178 189 179 191 206 224 166 172 151 161 159 156 159 180
261 270 285 241 225 228 229 203 234 225 211 220 213 257 233 256 244 230 223 197 186 206 216 219 193 211 194 173 159 179 181 181 190 186 196 198 205 189 191 211 182 180 201 175
219 203 186 222 199 191 206 211 221 215 237 242 202 240 245 251 244 215 225 189 202 219 227 228 192 206 192 181 178 170 189 197 197 194 189 188 194 241 236 217 212 214 206 185
215 188 198 235 211 168 184 219 219 203 209 240 235 209 217 249 247 235 213 200 219 223 225 224 209 206 177 177 180 192 194 183 187 192 194 192 196 195 199 246 224 221 222 212
193 117 312 213 214 193 171 157 152 244 238 214 215 177 205 233 269 244 227 228 234 230 216 215 209 214 189 180 187 196 201 189 183 191 195 192 197 200 179 190 199 214 233 225
216 216 209 115 5 207 197 127 213 247 239 258 197 217 168 249 252 252 240 214 230 227 230 207 217 226 195 185 190 195 192 198 193 191 193 197 196 196 198 198 207 200 257 244
219 226 227 227 251 240 176 195 207 236 227 238 226 219 231 224 249 261 211 206 187 236 228 220 228 232 188 181 196 202 211 216 194 188 184 187 190 197 204 208 212 215 213 216
197 235 195 230 215 230 215 232 213 232 215 214 234 242 216 225 256 263 250 233 231 250 252 214 238 191 183 189 190 203 203 196 199 203 200 196 193 203 204 206 217 217 225 201
215 226 227 223 225 215 213 212 203 221 221 234 220 193 216 203 241 252 231 237 229 253 241 227 221 190 191 192 194 196 195 199 194 206 208 204 208 205 207 209 213 217 221 207
215 223 229 225 197 169 191 195 200 215 224 205 183 230 223 229 224 249 237 245 215 238 263 214 221 204 204 197 189 193 194 196 202 202 206 208 209 210 209 213 219 219 215 197
292 310 301 275 157 170 212 218 199 212 211 180 229 269 254 243 235 236 217 244 218 228 304 272 241 217 210 192 190 191 197 196 199 201 202 211 214 211 213 222 225 222 214 208
316 285 248 227 236 227 230 180 155 208 209 172 204 235 250 277 265 223 300 276 298 357 321 308 278 263 236 192 187 196 193 197 200 205 202 208 219 219 214 206 214 217 220 219
338 335 326 334 315 313 6 324 220 183 180 176 206 236 237 265 277 264 220 226 297 353 330 305 285 279 246 191 181 202 203 202 205 206 205 209 216 220 224 223 221 222 224 226
340 338 335 357 348 320 313 218 215 168 247 251 239 236 219 217 194 147 304 298 325 318 317 313 312 309 300 184 170 172 196 205 208 213 214 213 218 222 226 222 224 222 223 220
343 339 337 330 326 334 344 351 353 344 249 282 263 255 222 221 294 199 215 308 319 305 281 283 311 330 2 289 175 190 200 197 202 212 210 219 223 227 228 230 229 226 225 224
355 331 340 13 23 360 337 340 331 356 359 349 327 330 306 292 175 243 291 289 324 4 341 337 350 4 22 24 271 218 206 204 208 227 232 239 240 238 237 233 231 230 219 213
2 2 352 358 5 333 324 326 346 334 328 309 321 8 340 335 328 311 302 76 63 62 41 301 22 24 17 29 43 51 59 9 355 352 322 300 276 264 247 232 230 223 220 221
5 14 4 2 13 347 339 345 338 336 337 18 312 356 353 337 322 6 11 22 49 59 38 18 26 4 28 56 51 45 36 38 34 33 11 345 339 343 340 327 322 335 348 183